[[{"header":{"parameterUnit":"m.s-1","parameterCategory":1,"la1":30.2991,"la2":30.254,"lo1":-89.0895,"lo2":-89.0444,"dy":0.0017,"dx":0.0017,"nx":28,"ny":28,"refTime":"2025-04-13T09:00:00:Z","depth":0,"parameterNumber":2,"parameterNumberName":"U-component_of_WINDS"},"data":[0,0,0,0,0,0,0,0,0,0,0,0,0,0,0,0,0,0,0,0,0,0,0,0,0,0,0,0,0,0,0,0,0,0,0,0,0,0,0,0,0,0,0,0,0,0,0,0,0,0,0,0,0,0,0,0,0,0,3.9439,3.9441,0,3.9573,3.9574,3.9576,3.9544,3.9541,3.9539,3.9537,3.967,3.9675,3.9681,0,0,0,0,0,0,0,0,0,0,0,0,0,3.9151,3.9156,3.9439,3.9441,3.9442,3.9573,3.9574,3.9576,3.9545,3.9541,3.9538,3.9535,3.9668,3.9675,3.9682,0,0,0,0,0,0,0,0,0,0,0,0,0,3.9279,3.9158,3.9439,3.9442,3.9444,3.9572,3.9575,3.9577,3.9545,3.9541,3.9537,3.9534,3.9665,3.9674,3.9683,3.9815,0,0,3.971,3.9714,0,0,0,0,0,0,0,0,3.9272,3.929,3.944,3.9442,3.9444,3.9538,3.9522,3.9656,3.9546,3.9507,3.9536,3.9532,3.9629,3.964,3.9674,3.9821,3.9826,3.9711,3.9716,3.972,3.9723,0,0,0,0,0,0,0,3.9263,3.9284,3.9492,3.9442,3.9445,3.9435,3.9449,3.9547,3.9587,3.951,3.9508,3.9524,3.9629,3.9665,3.9677,3.9828,3.9711,3.9718,3.9724,3.9727,4.0085,4.0089,0,0,0,0,0,0,3.9253,3.9277,3.9488,3.9496,3.9347,3.9444,3.9459,3.9512,3.9586,3.9594,3.9527,3.9522,3.9652,3.9666,3.9681,3.9837,3.972,3.9728,3.9733,4.0081,4.0086,4.0091,0,0,0,0,0,0,3.9247,3.9272,3.9482,3.9386,3.9412,3.9453,3.9512,3.9516,3.9552,3.96,3.9606,3.9557,3.9649,3.9669,3.9781,3.9841,3.9732,3.974,4.0076,4.0083,4.0088,4.0151,0,0,0,0,0,0,3.9239,3.927,3.9322,3.9387,3.9417,3.9582,3.9516,3.9522,3.9568,3.9563,3.9629,3.9637,3.9648,3.9768,3.979,3.9851,3.9747,4.0071,4.0079,4.0086,4.0143,4.0158,4.0171,0,0,0,0,0,3.9229,3.9335,3.9325,3.9351,3.9483,3.9585,3.9602,3.9614,3.9574,3.9624,3.9654,3.9635,3.9832,3.9779,3.9804,3.9869,4.0067,4.0077,4.0086,4.0137,4.0155,4.0171,0,0,0,0,0,0,3.9275,3.9343,3.9333,3.9464,3.9519,3.958,3.9645,3.9633,3.97,3.9692,3.9703,3.9718,3.9832,3.9862,3.9803,3.9998,3.9943,3.9958,3.9974,3.9991,4.0005,3.9994,3.9755,0,0,0,0,0,3.93,3.9379,3.9434,3.9544,3.9572,3.9604,3.9649,3.9653,3.971,3.9733,3.9771,3.9826,3.9899,3.9947,4.0018,4.0149,4.016,4.0205,4.0219,4.023,4.0241,4.0308,4.0327,4.0122,4.0121,4.0121,0,0,3.9353,3.9401,3.9449,3.9554,3.9597,3.9676,3.9623,3.971,3.9767,3.9745,3.9853,3.9883,3.9944,4.0065,4.012,4.0093,4.0301,4.0242,4.025,4.0256,4.032,4.0339,4.0356,4.0128,4.0127,4.0126,0,0,3.9489,3.9535,3.9629,3.9673,3.9739,3.976,3.9782,3.9845,3.9863,3.9972,3.9956,4.0024,4.0152,4.0195,4.0234,4.0384,4.0366,4.0407,4.0478,4.0543,4.0559,4.0573,4.0622,4.064,4.0419,4.0419,4.0419,0,3.9546,3.9666,3.9679,3.9766,3.981,3.9795,3.9889,3.9931,4.0016,4.0046,4.0016,4.0174,4.0215,4.0343,4.0379,4.0413,4.0436,4.0398,4.0556,4.057,4.0584,4.0631,4.065,4.0423,4.0423,4.0422,4.0422,0,3.973,3.9813,3.9881,3.9964,4.0017,4.0107,4.0131,4.0183,4.0182,4.0205,4.0313,4.0361,4.044,4.0471,4.0472,4.0599,4.058,4.0553,4.0497,4.0607,4.0651,4.067,4.0429,4.0428,4.0426,4.0425,0,0,3.9898,3.9986,4.001,4.0046,4.0117,4.018,4.0269,4.0346,4.0388,4.0448,4.0519,4.0627,4.0601,4.0645,4.0651,4.0708,4.0818,4.0674,4.0675,4.0695,4.0956,4.0973,4.0994,4.0809,4.0812,4.0815,4.0949,0,4.0037,4.0193,4.0206,4.0345,4.042,4.0406,4.0482,4.0532,4.0555,4.062,4.0645,4.072,4.0683,4.0709,4.0766,4.0793,4.087,4.0784,4.0872,4.0875,4.0853,4.1018,4.1037,4.1161,4.0967,4.097,4.0972,0,4.022,4.0284,4.0431,4.0488,4.052,4.0589,4.0658,4.0722,4.0778,4.079,4.0839,4.0836,4.0923,4.0867,4.0985,4.0926,4.0963,4.0981,4.0986,4.0992,4.0927,4.1024,4.1201,4.1218,4.1001,4.0998,4.0996,0,4.0322,4.0445,4.0548,4.058,4.0651,4.0698,4.073,4.0782,4.0827,4.0888,4.0916,4.0987,4.1024,4.1078,4.1092,4.1051,4.1209,4.1155,4.1218,4.1218,4.125,4.1247,4.1431,4.128,4.128,4.128,4.1279,0,4.0473,4.0562,4.0594,4.0657,4.0755,4.0769,4.0865,4.0894,4.094,4.1006,4.0999,4.1061,4.1079,4.1143,4.1155,4.1248,4.1267,4.1277,4.1278,4.1275,4.1273,4.1296,4.1287,4.1285,4.1284,4.1283,4.1282,0,4.0602,4.0628,4.0738,4.0796,4.0813,4.0882,4.0931,4.099,4.1012,4.1095,4.1115,4.1149,4.1224,4.1245,4.1335,4.1343,4.1451,4.1447,4.1432,4.1431,4.1492,4.1484,4.1695,4.1721,4.1557,4.1558,4.156,0,4.0695,4.0763,4.0828,4.0872,4.0906,4.0978,4.1023,4.1039,4.1085,4.1153,4.1203,4.1277,4.1337,4.1456,4.1487,4.1555,4.155,4.1619,4.1559,4.1553,4.1545,4.1539,4.1544,4.1629,4.163,4.1632,4.1633,0,4.0856,4.0865,4.0931,4.1001,4.1055,4.1111,4.1165,4.1201,4.1224,4.1276,4.1353,4.1399,4.1491,4.1563,4.1631,4.1661,4.1649,4.1652,4.1669,4.1665,4.1652,4.1655,4.1458,4.1646,4.1645,4.1644,4.1643,4.1643,4.0967,4.1025,4.1079,4.1152,4.1194,4.1244,4.1301,4.133,4.1395,4.147,4.1476,4.1558,4.1609,4.1699,4.1733,4.1796,4.1775,4.1801,4.1807,4.1812,4.1815,4.1645,4.1809,4.1808,4.1808,4.1808,4.1807,0,4.1123,4.1157,4.1225,4.1299,4.1356,4.1343,4.1401,4.1448,4.152,4.157,4.1629,4.1715,4.1784,4.1821,4.1889,4.1932,4.1928,4.1949,4.1944,4.195,4.1832,4.1808,4.1951,4.195,4.195,4.195,4.195,4.195,4.1211,4.1308,4.1323,4.1439,4.1472,4.1553,4.1586,4.1631,4.167,4.1767,4.1825,4.1849,4.1892,4.1963,4.2025,4.2033,4.2057,4.208,4.2085,4.1974,4.1959,4.1945,4.1922,4.2086,4.2086,4.2197,4.2198,4.2199]},{"header":{"parameterUnit":"m.s-1","parameterCategory":1,"la1":30.2991,"la2":30.254,"lo1":-89.0895,"lo2":-89.0444,"dy":0.0017,"dx":0.0017,"nx":28,"ny":28,"refTime":"2025-04-13T09:00:00:Z","depth":0,"parameterNumber":3,"parameterNumberName":"V-component_of_WINDS"},"data":[0,0,0,0,0,0,0,0,0,0,0,0,0,0,0,0,0,0,0,0,0,0,0,0,0,0,0,0,0,0,0,0,0,0,0,0,0,0,0,0,0,0,0,0,0,0,0,0,0,0,0,0,0,0,0,0,0,0,3.8316,3.8317,0,3.8412,3.8414,3.8415,3.8385,3.8383,3.838,3.8379,3.8474,3.8478,3.8483,0,0,0,0,0,0,0,0,0,0,0,0,0,3.8099,3.8103,3.8316,3.8317,3.8318,3.8412,3.8414,3.8415,3.8385,3.8382,3.838,3.8378,3.8473,3.8478,3.8483,0,0,0,0,0,0,0,0,0,0,0,0,0,3.8194,3.8105,3.8315,3.8315,3.8315,3.8412,3.8414,3.8415,3.8385,3.8382,3.8379,3.8376,3.8471,3.8477,3.8484,3.8586,0,0,3.8504,3.8507,0,0,0,0,0,0,0,0,3.8189,3.8202,3.8314,3.8315,3.8316,3.8383,3.8372,3.8472,3.8386,3.8359,3.8379,3.8375,3.8446,3.8455,3.8479,3.859,3.8595,3.8505,3.8509,3.8512,3.8513,0,0,0,0,0,0,0,3.8182,3.8198,3.8354,3.8315,3.8317,3.8307,3.8317,3.8391,3.8418,3.8361,3.8359,3.8371,3.8446,3.8473,3.8481,3.8596,3.8505,3.851,3.8515,3.8517,3.8792,3.8795,0,0,0,0,0,0,3.8175,3.8192,3.8351,3.8357,3.8244,3.8314,3.8325,3.8365,3.8417,3.8423,3.8374,3.8369,3.8463,3.8474,3.8485,3.8605,3.8512,3.8518,3.8522,3.8788,3.8792,3.8796,0,0,0,0,0,0,3.8171,3.819,3.8347,3.8274,3.8293,3.8321,3.8366,3.8368,3.8395,3.8427,3.8431,3.8396,3.8461,3.8475,3.856,3.8608,3.8521,3.8527,3.8784,3.879,3.8794,3.885,0,0,0,0,0,0,3.8165,3.8189,3.8229,3.8275,3.8297,3.8423,3.8369,3.8372,3.8407,3.8403,3.845,3.8454,3.846,3.8551,3.8567,3.8616,3.8532,3.878,3.8787,3.8793,3.8844,3.8856,3.8866,0,0,0,0,0,3.8157,3.8241,3.8232,3.8251,3.8349,3.8426,3.8439,3.8444,3.8411,3.8451,3.8471,3.8453,3.86,3.856,3.8578,3.863,3.8777,3.8785,3.8792,3.8838,3.8853,3.8866,0,0,0,0,0,0,3.82,3.8247,3.8237,3.8339,3.8379,3.8421,3.8472,3.846,3.851,3.8503,3.8507,3.8517,3.8604,3.8625,3.8579,3.8729,3.8684,3.8695,3.8713,3.8727,3.8738,3.8731,3.8538,0,0,0,0,0,3.8221,3.8281,3.8318,3.8404,3.8425,3.8445,3.8479,3.8479,3.852,3.8537,3.8563,3.8602,3.8657,3.8693,3.8746,3.8846,3.8854,3.889,3.8901,3.8911,3.892,3.8972,3.8988,3.882,3.882,3.882,0,0,3.8265,3.8298,3.8336,3.8413,3.8445,3.8504,3.8459,3.8526,3.8569,3.8546,3.8628,3.8649,3.8692,3.8785,3.8827,3.8805,3.8968,3.892,3.8927,3.8932,3.8981,3.8997,3.9011,3.8825,3.8824,3.8824,0,0,3.8376,3.8409,3.8483,3.8514,3.8562,3.8574,3.8591,3.8635,3.8648,3.873,3.8713,3.8764,3.886,3.8891,3.8919,3.9038,3.9022,3.9055,3.9114,3.9164,3.9178,3.9189,3.923,3.9245,3.9064,3.9064,3.9065,0,3.8425,3.8517,3.8522,3.8589,3.8622,3.8604,3.8677,3.8707,3.8769,3.8791,3.8766,3.8883,3.8911,3.9009,3.9038,3.9062,3.908,3.905,3.9176,3.9187,3.9198,3.9237,3.9252,3.9068,3.9068,3.9067,3.9067,0,3.8573,3.8637,3.869,3.8751,3.879,3.8859,3.8872,3.8911,3.8907,3.8921,3.9003,3.9036,3.9094,3.9117,3.9114,3.9214,3.9198,3.9175,3.9129,3.9218,3.9254,3.9269,3.9073,3.9072,3.9071,3.907,0,0,3.8716,3.8776,3.8796,3.8822,3.8871,3.8919,3.8986,3.9043,3.9075,3.9117,3.9172,3.9252,3.9229,3.9261,3.9261,3.9305,3.9394,3.9275,3.9276,3.9295,3.9503,3.9521,3.9538,3.9384,3.9387,3.9389,3.9499,0,3.883,3.8951,3.8955,3.9064,3.9121,3.9103,3.9161,3.9196,3.921,3.9259,3.9273,3.9329,3.9296,3.9314,3.9357,3.9374,3.9436,3.9367,3.9433,3.9435,3.9422,3.9557,3.9577,3.9679,3.9513,3.9516,3.9518,0,3.8981,3.9028,3.9142,3.9181,3.9205,3.9257,3.9308,3.9355,3.9393,3.94,3.9435,3.9427,3.9493,3.9445,3.9534,3.9487,3.9513,3.9525,3.9529,3.9536,3.9482,3.9566,3.9712,3.9727,3.954,3.9539,3.9537,0,3.9071,3.9163,3.9242,3.9265,3.9313,3.935,3.9371,3.9406,3.9439,3.9482,3.9503,3.9554,3.9581,3.9619,3.9624,3.9589,3.9713,3.9666,3.9718,3.9718,3.9746,3.9744,3.9897,3.9764,3.9764,3.9764,3.9764,0,3.9198,3.9268,3.9283,3.9333,3.9409,3.9412,3.9488,3.9506,3.9537,3.9587,3.9574,3.9621,3.9625,3.9673,3.9677,3.9749,3.9762,3.9767,3.9767,3.9768,3.9767,3.9786,3.9778,3.9768,3.9767,3.9766,3.9766,0,3.9313,3.9326,3.9411,3.9449,3.9459,3.9514,3.9545,3.959,3.9602,3.9666,3.968,3.9699,3.9753,3.9762,3.9827,3.9829,3.9915,3.9908,3.9903,3.9901,3.9953,3.9947,4.0123,4.0145,3.9999,4.0,4.0001,0,3.9393,3.9446,3.9489,3.9522,3.9545,3.9599,3.9632,3.9636,3.967,3.9716,3.9755,3.9809,3.9852,3.994,3.9958,4.0006,4.0,4.0058,4.0007,4.0005,3.9999,3.9995,3.9999,4.0067,4.0069,4.007,4.0071,0,3.9533,3.9536,3.9585,3.9636,3.9676,3.9715,3.9753,3.978,3.9788,3.9827,3.9884,3.9917,3.9982,4.0035,4.0082,4.0101,4.0087,4.0087,4.0102,4.0103,4.0097,4.0099,3.9928,4.0083,4.0082,4.0081,4.0081,4.008,3.9632,3.9677,3.9714,3.9768,3.9796,3.9831,3.9875,3.9891,3.9939,3.9993,3.9992,4.0053,4.0086,4.0148,4.017,4.0217,4.0198,4.0219,4.0224,4.0229,4.0234,4.009,4.0225,4.0225,4.0225,4.0224,4.0224,0,3.9769,3.9791,3.9841,3.9894,3.9936,3.9919,3.9959,3.9994,4.0049,4.0082,4.0124,4.0187,4.0237,4.0257,4.0306,4.0339,4.0333,4.0351,4.0348,4.0352,4.0249,4.0231,4.0355,4.0355,4.0354,4.0354,4.0354,4.0354,3.9846,3.9922,3.9929,4.0017,4.0038,4.0099,4.0122,4.0153,4.0179,4.025,4.0292,4.0305,4.0332,4.0382,4.0426,4.0431,4.0448,4.0469,4.047,4.0373,4.036,4.0347,4.033,4.0473,4.0473,4.057,4.0571,4.0572]}]]